Погода в Утене

Погода в Утене : погода сейчас, прогноз погоды и архив. Всё, что Вы хотите узнать о погоде в Утене!

Поиск расширенной информации на нашем сайте:

Полезная информация:

Другие новости

Новости СМИ2

Главная страница сайта

Новости сайта

03.07.2017

Напоминаем, что на нашем специализированном сайте Метеоцентр.Азия вы можете получить высокодетализированные автоматические прогнозы погоды по пунктам России, СНГ и мира в авиационном формате (включающие направление и скорость ветра, видимость, явления погоды, количество и форму облачности, нижнюю и верхнюю границу облачности).

Рекомендуем:

Погода в Утене - сегодня

Время (UTC), дата Ветер
(°,м/с) 
Видим.   Явления Облачность Т
(°С)
Тd
(°С)
f(%) Тe
(°С)
Pmin
(гПа)
dP
(гПа)
Po
(мм)
O2
(г/м3)
Тmin Tmax R s Состояние
почвы
06 20.05.19 140 (ЮВ) 4-7{07}  19000 м  {ливн. осадки}  8/4 600 м средняя, верхняя 
[Cu med, cong|Ac und|Ci sp]
+20.6 +9.4 49 +21  1014.6  752  280  +13.9    0.0    сухая 
09 20.05.19 120 (ЮВ) 5-8{09}  20000 м    5/3 600 м верхняя 
[Cu med, cong|Ci sp]
+25.6 +9.7 37 +26  1014  -0.4  751  275           
12 20.05.19 130 (ЮВ) 5-9{11}  20000 м    8/4 600 м средняя, верхняя 
[Cu med, cong|Ac und|Ci sp]
+26.9 +7.4 29 +27  1013  -0.9  751  274           
15 20.05.19 160 (Ю) 2-4{12}  20000 м  в посл. час ливневой дождь  9/5 600 м средняя, верхняя 
[Cu med, cong|Ac und|Ci sp]
+22.6 +11.9 51 +26  1013.2  751  277           
18 20.05.19 110 (В) 3-4{06}  20000 м  {ливн. осадки}  8/5 600 м средняя, верхняя 
[Cu med, cong|Ac und|Ci sp]
+21.7 +10.8 50 +24  1012.1  -1.1  750  278    +28.2  0.0     
21 20.05.19 130 (ЮВ) 3-5{07}  20000 м    5/0 средняя 
[Ac und]
+20.7 +9.5 49 +21  1012.1  -0.1  750  279           
00 21.05.19 140 (ЮВ) 2-4{06}  20000 м    8/3 600 м средняя 
[Sc|Ac und]
+19.4 +8.9 51 +20  1011.7  -0.4  749  280           
03 21.05.19 110 (В) 2-4{05}  20000 м    3/0 средняя 
[Ac und]
+16.3 +8.3 59 +17  1011.7  -0.1  749  284           
06 21.05.19 140 (ЮВ) 4-6{07}  20000 м    4/3 600 м верхняя 
[Cu med, cong|Ci sp]
+20.5 +9.3 49 +21  1011.7  0.1  749  279  +15.3        сухая 
09 21.05.19 140 (ЮВ) 3-6{07}  20000 м    3/3 1000 м верхняя 
[Cu med, cong|Ci sp]
+25.3 +11.7 43 +29  1010.9  -0.6  749  274           
12 21.05.19 120 (ЮВ) 4-8{08}  18000 м    4/3 600 м верхняя 
[Cu hum|Ci sp]
+27.3 +12 39 +31  1010  -0.8  748  272           
15 21.05.19 140 (ЮВ) 4-7{10}  20000 м    3/3 1000 м 
[Cu hum]
+27.2 +8.6 31 +27  1008.7  -1.3  747  272           
18 21.05.19 120 (ЮВ) 3-5{08}  20000 м    3/3 600 м верхняя 
[Cu med, cong|Ci fib]
+23.7 +8.1 37 +24  1008.7  -0.1  747  276    +27.7       
21 21.05.19 130 (ЮВ) 1-2{06}  20000 м    ясно 
+15 +10.2 73 +17  1009.7  0.6  748  284           
00 22.05.19 120 (ЮВ) 2-3{03}  20000 м    3/3 600 м 
[Sc]
+14.5 +10.7 78 +17  1008.9  -0.8  747  284           
03 22.05.19 тихо () -0{03}  20000 м    3/3 1000 м 
[Sc]
+11.3 +9.5 89 +12  1009.3  0.3  747  287           
06 22.05.19 180 (Ю) 1-3{05}  20000 м    4/3 600 м средняя, верхняя 
[Cu med, cong|Ac lent|Ci sp]
+18.8 +11.6 63 +23  1009.2  0.2  748  280  +11.1        сухая 
09 22.05.19 120 (ЮВ) 3-5{05}  20000 м    5/4 1000 м верхняя 
[Cu hum|Ci sp]
+22.7 +12.2 51 +27  1008.7  -0.3  747  276           
12 22.05.19 090 (В) 2-5{05}  19000 м    4/3 600 м верхняя 
[Cu hum|Ci sp]
+25.2 +10.6 40 +27  1007.7  -0.9  747  274           
15 22.05.19 тихо () -2{05}  20000 м    4/3 1000 м верхняя 
[Cu med, cong|Ci sp]
+25 +10 39 +26  1006.9  -0.8  746  274           
18 22.05.19 тихо () -2{04}  20000 м    8/4 600 м средняя, верхняя 
[Cu med, cong|Ac und|Ci sp]
+19.7 +10.8 56 +22  1007.4  0.3  746  279    +26.5       
21 22.05.19 тихо () -2{05}  20000 м    6/4 600 м средняя 
[Sc|Ac und]
+15.3 +11.7 79 +19  1008.2  0.6  747  283           
00 23.05.19 130 (ЮВ) 1-2{03}  20000 м    8/4 600 м средняя 
[Sc|Ac und]
+12.9 +10.5 85 +16  1008.2  -0.1  747  285           
03 23.05.19 тихо () -1{02}  20000 м    6/3 600 м средняя, верхняя 
[Sc|Ac und|Ci sp]
+12.7 +10.7 88 +15  1008.1  -0.1  747  285           
06 23.05.19 тихо () -2{03}  20000 м    6/3 600 м средняя, верхняя 
[Cu med, cong|Ac und|Ci sp]
+20.1 +13.1 64 +26  1008.1  0.3  747  278  +11.9        сухая 
Время (UTC), дата Ветер
(°,м/с) 
Видим.   Явления Облачность Т
(°С)
Тd
(°С)
f(%) Тe
(°С)
Pmin
(гПа)
dP
(гПа)
Po
(мм)
O2
(г/м3)
Тmin Tmax R s Состояние
почвы

Для получения пояснительной информации подведите курсор к названию столбца.

ПОГОДА в Утене - архив

Всё, что Вы хотите узнать о погоде в Утене - удобно и подробно!

Выберите нужную дату (начиная с 1 января 2018* года) и нажмите кнопку "Найти".
Будут отображены архивные сводки погоды по пункту Утена, начиная с указанной даты.


Отображать данные в формате CSV (для использования в таблицах Excel)


Внимание! Наш архив погоды предназначен исключительно для личного некоммерческого использования в познавательных целях. Если Вам необходимы официальные справки о состоянии погоды (для производственных, юридических, коммерческих и т.п. целей), обращайтесь в органы Росгидромета.

*Примечание: данная дата относится к архиву по метеостанциям СССР (Россия, СНГ, Балтия).
Архив по метеостанциям Зарубежной Европы и Азии (кроме Китая) хранится 10 дней, по другим регионам земного шара (Китай, Африка, Америка, Австралия, Океания) - 1 день.

Утена - район местоположения метеостанции


Название, широта, долгота, высота метеостанции:
Утена 55.5°ш. 25.6°д. 106 м над ур. моря [Литва]

Дополнительная информация

В oтличие oт бoльшинства пoгoдных сайтoв мы публикуем пoдрoбную метеoинфoрмацию в детальнoм прoфессиoнальнoм фoрмате.

Характеристики температуры и влажнoсти вoздуха измеряются на высoте 2 м в тени вдали oт зданий и деревьев.
Скoрoсть ветра измеряется на высoте 10 м (на урoвне рoста челoвека скoрoсть ветра ниже в 1.5-2 раза). Если метеoстанция нахoдится в гoрoде или в лесу, тo скoрoсть ветра занижена на 2-4 м/с пo сравнению с oткрытым местoм. Скoрoсть ветра над акватoриями крупных рек и oзёр, а также на вершинах хoлмoв на 2-5 м/с выше, чем в oбычных услoвиях.
Атмoсфернoе давление в разных тoчках местнoсти мoжет значительнo oтличаться oт давления на метеoстанции, в зависимoсти oт услoвий рельефа (при пoдъёме на 10 м давление пoнижается примернo на 1 мм рт.ст.).